Weather History for Orange, MA

Change the Weather History Date:

Wednesday, February 20, 2013

  Actual Average Record
Temperature  
Mean Temperature 30 °F -  
Max Temperature 35 °F 34 °F 50 °F (2002)
Min Temperature 24 °F 15 °F 3 °F (2006)
Degree Days  
Heating Degree Days 36    
Moisture  
Dew Point 18 °F    
Average Humidity 65    
Maximum Humidity 100    
Minimum Humidity 41    
Precipitation  
Precipitation 0.01 in - - ()
Sea Level Pressure  
Sea Level Pressure 29.67 in    
Wind  
Wind Speed 9 mph (West)    
Max Wind Speed 23 mph    
Max Gust Speed 30 mph    
Visibility 9 miles    
Events Rain    
Averages and records for this station are not official NWS values.
T = Trace of Precipitation, MM = Missing Value Source: NWS Daily Summary

Daily Weather History Graph

Daily Weather History Graph

Search for Another Location

Airport:

Trip Planner

Search our weather history database for the weather conditions in past years. The results will help you decide how hot, cold, wet, or windy it might be!

Date:

Astronomy

Feb. 20, 2013 Rise Set
Actual Time 6:38 AM EST 5:27 PM EST
Civil Twilight 6:09 AM EST 5:56 PM EST
Nautical Twilight 5:37 AM EST 6:29 PM EST
Astronomical Twilight 5:04 AM EST 7:01 PM EST
Moon 12:42 PM EST (2/20) 3:00 AM EST (2/20)
Length of Visible Light 11h 46m
Length of Day
10h 49m
Waxing Gibbous, 76% of the Moon is Illuminated
Feb 20
Waxing Gibbous
Feb 25
Full
Mar 4
Last Quarter
Mar 11
New
Mar 19
First Quarter

Hourly Weather History & Observations

Time (EST) Temp. Windchill Dew Point Humidity Pressure Visibility Wind Dir Wind Speed Gust Speed Precip Events Conditions
12:39 AM 33.8 °F - 33.8 °F 100% 29.56 in 1.8 mi Calm Calm - 0.00 in Rain Light Rain
12:52 AM 34.0 °F 31.0 °F 33.1 °F 96% 29.57 in 1.8 mi SSW 3.5 mph - 0.00 in Rain Light Rain
12:59 AM 33.8 °F 30.8 °F 33.8 °F 100% 29.56 in 3.0 mi SW 3.5 mph - 0.00 in Rain Light Rain
1:26 AM 35.6 °F 27.1 °F 33.8 °F 93% 29.56 in 8.0 mi West 12.7 mph 23.0 mph 0.01 in Rain Light Rain
1:47 AM 33.8 °F 25.3 °F 30.2 °F 87% 29.57 in 10.0 mi West 11.5 mph 23.0 mph 0.01 in   Overcast
1:52 AM 33.1 °F 24.9 °F 30.0 °F 89% 29.59 in 10.0 mi WNW 10.4 mph 18.4 mph 0.01 in   Overcast
2:52 AM 33.1 °F 26.1 °F 26.1 °F 75% 29.60 in 10.0 mi WNW 8.1 mph - N/A   Overcast
3:52 AM 32.0 °F 21.2 °F 23.0 °F 69% 29.62 in 10.0 mi WNW 16.1 mph 25.3 mph N/A   Overcast
4:52 AM 30.9 °F 21.7 °F 19.9 °F 64% 29.63 in 10.0 mi West 11.5 mph 26.5 mph N/A   Overcast
5:52 AM 28.9 °F 18.6 °F 17.1 °F 61% 29.65 in 10.0 mi WNW 12.7 mph 21.9 mph N/A   Overcast
6:52 AM 27.0 °F 19.5 °F 16.0 °F 63% 29.66 in 10.0 mi WNW 6.9 mph 18.4 mph N/A   Scattered Clouds
7:52 AM 28.0 °F 21.7 °F 16.0 °F 61% 29.68 in 10.0 mi West 5.8 mph 18.4 mph N/A   Mostly Cloudy
8:52 AM 28.0 °F 17.0 °F 17.1 °F 63% 29.69 in 10.0 mi West 13.8 mph 23.0 mph N/A   Overcast
9:52 AM 28.0 °F 15.7 °F 14.0 °F 56% 29.69 in 10.0 mi WNW 17.3 mph 27.6 mph N/A   Overcast
10:52 AM 28.9 °F 18.6 °F 14.0 °F 54% 29.70 in 10.0 mi WNW 12.7 mph 20.7 mph N/A   Overcast
12:52 PM 28.9 °F 17.3 °F 10.9 °F 47% 29.68 in 10.0 mi WNW 16.1 mph 27.6 mph N/A   Overcast
1:52 PM 28.9 °F 16.1 °F 8.1 °F 41% 29.68 in 10.0 mi WNW 19.6 mph 26.5 mph N/A   Overcast
2:52 PM 28.9 °F 17.7 °F 10.0 °F 45% 29.69 in 10.0 mi WNW 15.0 mph 29.9 mph N/A   Mostly Cloudy
3:52 PM 27.0 °F 12.5 °F 8.1 °F 45% 29.71 in 10.0 mi West 23.0 mph 28.8 mph N/A   Overcast
4:52 PM 26.1 °F 12.7 °F 8.1 °F 47% 29.73 in 10.0 mi West 18.4 mph 28.8 mph N/A   Overcast
5:52 PM 25.0 °F 14.2 °F 9.0 °F 51% 29.74 in 10.0 mi West 11.5 mph 23.0 mph N/A   Mostly Cloudy
6:52 PM 25.0 °F 15.5 °F 9.0 °F 51% 29.76 in 10.0 mi West 9.2 mph 24.2 mph N/A   Overcast
7:52 PM 24.1 °F 14.4 °F 10.0 °F 55% 29.76 in 10.0 mi West 9.2 mph - N/A   Scattered Clouds
8:52 PM 24.1 °F 14.4 °F 10.9 °F 57% 29.77 in 10.0 mi West 9.2 mph 24.2 mph N/A   Clear
10:52 PM 24.1 °F 11.0 °F 12.9 °F 62% 29.80 in 10.0 mi West 16.1 mph 28.8 mph N/A   Scattered Clouds
11:52 PM 24.1 °F 12.0 °F 12.0 °F 60% 29.80 in 10.0 mi West 13.8 mph 21.9 mph N/A   Partly Cloudy